KD7MPG-3 Weather Reports


time (UTC)temp
F
wind
direction
speed
knots
gust
knots
rain 1hr
in
rain 24hr
in
rain mn
in
humidity
%
barometer
mb
20260906180303 57 246 0.0 0.9 0.51 0.77 0.77 92 1025.8
20260906175801 57 246 0.0 1.7 0.56 0.76 0.76 92 1025.8
20260906175301 57 246 0.0 1.7 0.60 0.76 0.76 92 1025.6
20260906174756 57 246 0.0 2.6 0.61 0.75 0.75 92 1025.6
20260906174255 57 245 0.0 2.6 0.62 0.75 0.75 92 1025.5
20260906173755 57 0 0.0 1.7 0.61 0.74 0.74 92 1025.5
20260906173257 57 333 0.0 2.6 0.61 0.73 0.73 92 1025.4
20260906172755 57 332 0.9 2.6 0.57 0.69 0.70 92 1025.5
20260906172256 57 250 0.0 2.6 0.51 0.63 0.64 92 1025.4
20260906171751 57 237 0.9 3.5 0.42 0.53 0.55 92 1025.5
20260906171251 57 239 0.9 2.6 0.33 0.44 0.44 92 1025.4
20260906170749 57 166 0.9 2.6 0.21 0.31 0.33 92 1025.5
20260906170249 57 169 0.0 1.7 0.16 0.26 0.27 92 1025.3
20260906165749 57 169 0.0 0.9 0.11 0.20 0.21 92 1025.3
20260906165250 57 169 0.0 3.5 0.06 0.15 0.15 92 1025.3
20260906164745 57 169 0.9 3.5 0.05 0.14 0.14 92 1025.2
20260906164245 57 200 0.9 4.3 0.05 0.13 0.13 92 1025.0
20260906163746 57 212 0.9 4.3 0.05 0.13 0.13 92 1025.0
20260906163245 57 259 0.9 5.2 0.05 0.12 0.12 92 1024.9
20260906162743 57 210 0.9 5.2 0.06 0.12 0.12 92 1024.9
20260906162244 57 198 0.0 3.5 0.07 0.12 0.12 92 1024.9
20260906161739 57 223 0.0 2.6 0.06 0.11 0.11 92 1024.9
20260906161239 57 246 0.0 1.7 0.07 0.11 0.11 92 1024.9
20260906160739 57 246 0.0 1.7 0.06 0.10 0.10 92 1024.9
20260906160239 57 250 0.9 2.6 0.07 0.10 0.10 92 1024.8
20260906155736 57 250 0.0 2.6 0.06 0.09 0.09 92 1024.7
20260906155238 57 182 0.0 1.7 0.06 0.09 0.09 92 1024.7
20260906154731 57 176 0.0 1.7 0.06 0.09 0.09 92 1024.8
20260906154235 57 176 0.0 1.7 0.05 0.08 0.08 92 1024.8
20260906153727 57 177 0.0 0.9 0.05 0.08 0.08 92 1024.8
20260906153225 57 176 0.0 0.9 0.05 0.07 0.07 92 1024.7
20260906152725 57 177 0.0 0.9 0.04 0.06 0.06 92 1024.8
20260906152219 57 176 0.0 0.9 0.03 0.05 0.05 92 1024.8
20260906151718 57 176 0.0 2.6 0.04 0.05 0.05 92 1024.8
20260906151219 57 175 0.0 2.6 0.03 0.04 0.04 92 1024.6
20260906150719 57 175 0.0 0.9 0.03 0.04 0.04 92 1024.7
20260906150219 57 175 0.0 0.9 0.02 0.03 0.03 92 1024.6
20260906145720 57 175 0.0 0.9 0.02 0.03 0.03 91 1024.6
20260906145213 57 175 0.0 0.9 0.02 0.03 0.03 91 1024.6
20260906144710 57 175 0.0 1.7 0.02 0.03 0.03 91 1024.5
20260906144210 57 175 0.0 1.7 0.02 0.03 0.03 91 1024.5
20260906143707 57 168 0.0 0.9 0.02 0.03 0.03 91 1024.5
20260906143207 57 167 0.0 2.6 0.01 0.02 0.02 91 1024.6
20260906142705 57 168 0.0 2.6 0.02 0.02 0.02 91 1024.5
20260906142205 57 168 0.0 2.6 0.02 0.02 0.02 91 1024.5
20260906141706 57 215 0.0 1.7 0.01 0.01 0.01 91 1024.4
20260906141202 57 194 0.0 1.7 0.01 0.01 0.01 91 1024.3
20260906140701 57 205 0.0 1.7 0.01 0.01 0.01 91 1024.4
20260906140202 57 200 0.0 1.7 0.01 0.01 0.01 91 1024.3
20260906135659 57 200 0.0 1.7 0.01 0.01 0.01 91 1024.3
20260906135158 57 267 0.0 0.9 0.01 0.01 0.01 91 1024.3
20260906134659 57 268 0.0 0.0 0.01 0.01 0.01 91 1024.3
20260906134159 57 267 0.0 0.0 0.01 0.01 0.01 91 1024.3
20260906133700 57 268 0.0 0.9 0.01 0.01 0.01 91 1024.2
20260906133159 57 267 0.0 2.6 0.01 0.01 0.01 91 1024.2
20260906132659 57 275 0.0 3.5 0.00 0.00 0.00 91 1024.1
20260906132156 57 267 0.9 3.5 0.00 0.00 0.00 91 1024.0
20260906131654 57 215 0.9 3.5 0.00 0.00 0.00 91 1023.9
20260906131152 57 196 0.9 2.6 0.00 0.00 0.00 90 1024.0
20260906130652 57 194 0.0 1.7 0.00 0.00 0.00 90 1023.9
20260906130151 57 163 0.9 3.5 0.00 0.00 0.00 90 1023.9
20260906125651 57 255 0.9 3.5 0.00 0.00 0.00 91 1023.8
20260906125146 57 248 0.0 2.6 0.00 0.00 0.00 91 1023.8
20260906124647 57 272 0.0 1.7 0.00 0.00 0.00 91 1023.9
20260906124146 57 272 0.0 1.7 0.00 0.00 0.00 91 1023.9
20260906123647 57 273 0.0 1.7 0.00 0.00 0.00 91 1024.1
20260906123145 57 272 0.0 0.9 0.00 0.00 0.00 91 1024.2
20260906122646 57 272 0.0 0.9 0.00 0.00 0.00 91 1024.2
20260906122140 57 273 0.0 0.0 0.00 0.00 0.00 91 1024.2
20260906121641 57 272 0.0 0.0 0.00 0.00 0.00 91 1024.2
20260906121139 57 272 0.0 0.0 0.00 0.00 0.00 90 1024.2
20260906120640 57 272 0.0 0.0 0.00 0.00 0.00 90 1024.3
20260906120139 57 273 0.0 0.0 0.00 0.00 0.00 90 1024.2
20260906115638 57 272 0.0 0.0 0.00 0.00 0.00 90 1024.1
20260906115140 57 272 0.0 0.0 0.00 0.00 0.00 90 1024.0
20260906114639 57 272 0.0 0.0 0.00 0.00 0.00 90 1023.9
20260906114135 57 273 0.0 0.0 0.00 0.00 0.00 90 1023.9
20260906113635 57 272 0.0 0.0 0.00 0.00 0.00 90 1023.9
20260906113134 57 272 0.0 0.0 0.00 0.00 0.00 90 1023.9
20260906112635 57 273 0.0 0.0 0.00 0.00 0.00 90 1024.0
20260906112134 57 272 0.0 0.0 0.00 0.00 0.00 90 1024.0
20260906111635 57 273 0.0 0.0 0.00 0.00 0.00 90 1024.0
20260906111131 57 272 0.0 0.0 0.00 0.00 0.00 90 1024.1
20260906110632 57 273 0.0 0.9 0.00 0.00 0.00 90 1024.1
20260906110130 58 272 0.0 0.9 0.00 0.00 0.00 90 1024.0
20260906105630 58 272 0.0 0.0 0.00 0.00 0.00 90 1024.0
20260906105131 58 272 0.0 0.0 0.00 0.00 0.00 89 1024.0
20260906104636 58 273 0.0 0.0 0.00 0.00 0.00 89 1024.0
20260906104126 58 272 0.0 0.0 0.00 0.00 0.00 89 1024.0
20260906103628 58 272 0.0 0.0 0.00 0.00 0.00 89 1023.9
20260906103126 58 273 0.0 0.0 0.00 0.00 0.00 89 1024.0
20260906102626 58 272 0.0 0.0 0.00 0.00 0.00 89 1023.8
20260906102126 58 273 0.0 1.7 0.00 0.00 0.00 89 1023.8
20260906101626 58 272 0.9 2.6 0.00 0.00 0.00 90 1023.8
20260906101127 58 273 0.9 2.6 0.00 0.00 0.00 90 1023.8
20260906100626 58 272 0.0 1.7 0.00 0.00 0.00 90 1023.7
20260906100127 58 273 0.0 0.9 0.00 0.00 0.00 90 1023.8
20260906095624 58 272 0.0 1.7 0.00 0.00 0.00 90 1023.9
20260906095122 58 273 0.0 1.7 0.00 0.00 0.00 90 1023.9
20260906094624 58 273 0.0 1.7 0.00 0.00 0.00 90 1023.9
20260906094124 58 273 0.0 0.9 0.00 0.00 0.00 89 1023.9
20260906093620 58 272 0.0 1.7 0.00 0.00 0.00 89 1023.8
20260906093121 58 272 0.0 1.7 0.00 0.00 0.00 89 1023.6
20260906092616 58 272 0.0 1.7 0.00 0.00 0.00 89 1023.7
20260906092114 58 273 0.0 1.7 0.00 0.00 0.00 89 1023.7
20260906091614 58 273 0.0 1.7 0.00 0.00 0.00 89 1023.7
20260906091116 58 273 0.0 1.7 0.00 0.00 0.00 89 1023.6
20260906090614 58 273 0.0 1.7 0.00 0.00 0.00 89 1023.5
20260906090115 58 272 0.0 1.7 0.00 0.00 0.00 89 1023.6
20260906085612 58 272 0.0 0.0 0.00 0.00 0.00 89 1023.6
20260906085110 58 272 0.0 0.0 0.00 0.00 0.00 89 1023.7
20260906084612 58 273 0.0 0.0 0.00 0.00 0.00 89 1023.7
20260906084110 58 272 0.0 0.0 0.00 0.00 0.00 89 1023.7
20260906083608 58 273 0.0 0.9 0.00 0.00 0.00 89 1023.7
20260906083109 58 273 0.0 0.9 0.00 0.00 0.00 89 1023.7
20260906082602 58 273 0.0 0.9 0.00 0.00 0.00 89 1023.6
20260906082103 58 272 0.0 0.9 0.00 0.00 0.00 89 1023.6
20260906081602 58 272 0.0 0.9 0.00 0.00 0.00 89 1023.6
20260906081102 58 272 0.0 0.0 0.00 0.00 0.00 89 1023.6
20260906080603 58 273 0.0 0.0 0.00 0.00 0.00 88 1023.6
20260906080103 58 272 0.0 0.0 0.00 0.00 0.00 89 1023.6
20260906075556 58 273 0.0 1.7 0.00 0.00 0.00 89 1023.6
20260906075056 58 273 0.0 1.7 0.00 0.00 0.00 89 1023.7
20260906074557 58 272 0.0 0.9 0.00 0.00 0.00 89 1023.7
20260906074056 58 273 0.0 1.7 0.00 0.00 0.00 89 1023.7
20260906073556 58 272 0.0 1.7 0.00 0.00 0.00 89 1023.9
20260906073056 58 272 0.0 1.7 0.00 0.00 0.00 89 1023.8
20260906072552 58 272 0.0 0.0 0.00 0.00 0.00 88 1023.8
20260906072053 58 272 0.0 0.0 0.00 0.00 0.00 88 1023.8
20260906071550 58 272 0.0 0.0 0.00 0.00 0.00 88 1023.8
20260906071051 59 272 0.0 0.0 0.00 0.00 0.00 88 1023.7
20260906070550 59 273 0.0 0.0 0.00 0.00 0.00 88 1023.7
20260906070050 59 272 0.0 1.7 0.00 0.00 0.00 88 1023.8
20260906065547 59 272 0.0 1.7 0.00 0.00 0.00 88 1023.7
20260906065046 58 272 0.0 1.7 0.00 0.00 0.00 89 1023.7
20260906064547 58 272 0.0 1.7 0.00 0.00 0.00 89 1023.7
20260906064046 58 273 0.0 1.7 0.00 0.00 0.00 89 1023.8
20260906063544 58 272 0.0 1.7 0.00 0.00 0.00 89 1023.7
20260906063045 58 273 0.0 1.7 0.00 0.00 0.00 88 1023.6
20260906062539 58 272 0.0 1.7 0.00 0.00 0.00 89 1023.6
20260906062038 58 273 0.0 2.6 0.00 0.00 0.00 89 1023.9
20260906061538 58 272 0.0 2.6 0.00 0.00 0.00 89 1023.7
20260906061044 57 271 0.0 1.7 0.00 0.00 0.00 89 1023.9
20260906060538 57 273 0.0 1.7 0.00 0.00 0.00 89 1024.0
20260906060039 57 272 0.0 0.0 0.00 0.00 0.00 89 1024.1
20260906055537 57 272 0.0 0.0 0.00 0.00 0.00 88 1024.1
20260906055036 57 272 0.0 0.0 0.00 0.00 0.00 88 1024.1
20260906054537 58 272 0.0 0.0 0.00 0.00 0.00 88 1024.2
20260906054034 58 272 0.0 0.0 0.00 0.00 0.00 88 1024.1
20260906053532 58 272 0.0 0.0 0.00 0.00 0.00 88 1024.1
20260906053032 58 272 0.0 0.0 0.00 0.00 0.00 87 1024.1
20260906052530 58 272 0.0 0.0 0.00 0.00 0.00 87 1024.1
20260906052034 58 272 0.0 0.0 0.00 0.00 0.00 87 1024.2
20260906051529 58 272 0.0 0.0 0.00 0.00 0.00 87 1024.2
20260906051029 59 271 0.0 0.0 0.00 0.00 0.00 87 1024.1
20260906050526 59 272 0.0 0.0 0.00 0.00 0.00 87 1024.1
20260906050026 59 272 0.0 0.0 0.00 0.00 0.00 87 1024.1
20260906045524 59 272 0.0 0.0 0.00 0.00 0.00 87 1024.1
20260906045024 60 272 0.0 0.0 0.00 0.00 0.00 86 1024.2
20260906044525 60 272 0.0 0.0 0.00 0.00 0.00 86 1024.2
20260906044022 60 272 0.0 0.0 0.00 0.00 0.00 86 1024.2
20260906043520 60 272 0.0 0.9 0.00 0.00 0.00 86 1024.2
20260906043020 60 273 0.0 0.9 0.00 0.00 0.00 86 1024.3
20260906042515 60 272 0.0 1.7 0.00 0.00 0.00 86 1024.3
20260906042013 60 272 0.0 1.7 0.00 0.00 0.00 85 1024.3
20260906041510 61 272 0.9 2.6 0.00 0.00 0.00 85 1024.3
20260906041008 61 272 0.9 2.6 0.00 0.00 0.00 85 1024.2
20260906040509 61 272 0.9 1.7 0.00 0.00 0.00 85 1024.3
20260906040002 61 272 0.9 3.5 0.00 0.00 0.00 85 1024.3
20260906035501 61 273 0.9 3.5 0.00 0.00 0.00 85 1024.3
20260906034958 61 270 0.9 1.7 0.00 0.00 0.00 84 1024.3
20260906034455 62 270 0.9 1.7 0.00 0.00 0.00 84 1024.2
20260906033956 62 270 0.9 2.6 0.00 0.00 0.00 84 1024.1
20260906033452 62 271 0.9 2.6 0.00 0.00 0.00 83 1024.0
20260906032950 62 270 0.9 2.6 0.00 0.00 0.00 83 1024.1
20260906032449 62 270 0.9 3.5 0.00 0.00 0.00 83 1023.9
20260906031950 63 269 0.9 3.5 0.00 0.00 0.00 83 1023.9
20260906031449 63 271 0.9 2.6 0.00 0.00 0.00 82 1024.1
20260906030950 63 271 1.7 5.2 0.00 0.00 0.00 82 1024.0
20260906030446 63 268 1.7 5.2 0.00 0.00 0.00 82 1024.0
20260906025944 63 226 0.9 5.2 0.00 0.00 0.00 82 1024.0
20260906025444 64 271 0.9 3.5 0.00 0.00 0.00 81 1024.0
20260906024943 64 281 0.9 3.5 0.00 0.00 0.00 81 1024.0
20260906024444 64 239 1.7 5.2 0.00 0.00 0.00 81 1024.0
20260906023945 65 27 1.7 5.2 0.00 0.00 0.00 80 1024.0
20260906023439 65 257 1.7 4.3 0.00 0.00 0.00 80 1024.0
20260906022938 65 277 1.7 3.5 0.00 0.00 0.00 79 1023.9
20260906022438 65 298 1.7 5.2 0.00 0.00 0.00 78 1023.9
20260906021938 65 306 1.7 5.2 0.00 0.00 0.00 78 1023.7
20260906021437 65 256 1.7 4.3 0.00 0.00 0.00 77 1023.8
20260906020939 66 257 2.6 7.0 0.00 0.00 0.00 76 1023.8
20260906020433 66 340 2.6 7.8 0.00 0.00 0.00 75 1023.7
20260906015931 66 287 2.6 7.8 0.00 0.00 0.00 75 1023.7
20260906015432 66 245 2.6 5.2 0.00 0.00 0.00 74 1023.8
20260906014932 67 327 2.6 7.0 0.00 0.00 0.00 74 1023.8
20260906014432 67 286 2.6 7.0 0.00 0.00 0.00 73 1023.8
20260906013932 67 250 2.6 7.8 0.00 0.00 0.00 73 1023.9
20260906013430 67 0 2.6 7.8 0.00 0.00 0.00 73 1023.9
20260906012929 67 277 2.6 7.0 0.00 0.00 0.00 73 1024.0
20260906012431 67 302 3.5 7.0 0.00 0.00 0.00 72 1023.9
20260906011928 68 260 2.6 7.0 0.00 0.00 0.00 72 1024.0
20260906011426 68 252 2.6 7.0 0.00 0.00 0.00 71 1024.0
20260906010927 69 261 2.6 7.8 0.00 0.00 0.00 71 1024.1
20260906010424 69 282 2.6 7.8 0.00 0.00 0.00 69 1024.0
20260906005924 70 250 2.6 4.3 0.00 0.00 0.00 69 1023.9
20260906005425 70 275 2.6 7.0 0.00 0.00 0.00 67 1024.0
20260906004921 71 297 2.6 7.0 0.00 0.00 0.00 68 1024.0
20260906004419 71 304 2.6 5.2 0.00 0.00 0.00 67 1024.0
20260906003920 71 266 1.7 5.2 0.00 0.00 0.00 66 1023.9
20260906003414 71 265 1.7 4.3 0.00 0.00 0.00 65 1023.9
20260906002913 71 280 1.7 6.1 0.00 0.00 0.00 64 1024.0
20260906002413 71 236 2.6 6.1 0.00 0.00 0.00 63 1023.9
20260906001913 71 229 2.6 5.2 0.00 0.00 0.00 62 1023.9
20260906001413 72 280 2.6 6.1 0.00 0.00 0.00 62 1023.8
20260906000914 72 268 2.6 6.1 0.00 0.00 0.00 62 1023.9
20260906000410 72 313 2.6 7.0 0.00 0.00 0.00 62 1023.9
20260905235907 72 327 1.7 7.0 0.00 0.00 0.00 63 1023.7
20260905235405 72 274 1.7 5.2 0.00 0.00 0.00 63 1023.6
20260905234906 71 329 1.7 5.2 0.00 0.00 0.00 65 1023.8
20260905234404 71 300 2.6 4.3 0.00 0.00 0.00 64 1023.9
20260905233902 72 232 2.6 5.2 0.00 0.00 0.00 64 1023.9
20260905233401 72 252 2.6 5.2 0.00 0.00 0.00 63 1023.9
20260905232902 72 291 1.7 5.2 0.00 0.00 0.00 65 1023.9
20260905232359 72 319 1.7 5.2 0.00 0.00 0.00 64 1023.9
20260905231859 72 204 2.6 6.1 0.00 0.00 0.00 65 1023.9
20260905231401 71 336 2.6 6.1 0.00 0.00 0.00 65 1024.0
20260905230900 71 275 2.6 6.1 0.00 0.00 0.00 65 1023.9
20260905230359 72 254 3.5 6.1 0.00 0.00 0.00 65 1024.0
20260905225858 72 210 2.6 6.1 0.00 0.00 0.00 65 1024.1
20260905225357 72 227 1.7 6.1 0.00 0.00 0.00 66 1024.2
20260905224857 72 271 1.7 6.1 0.00 0.00 0.00 65 1024.3
20260905224358 72 285 2.6 6.1 0.00 0.00 0.00 64 1024.3
20260905223853 72 331 2.6 7.8 0.00 0.01 0.00 65 1024.3
20260905223354 72 279 2.6 7.8 0.00 0.01 0.00 65 1024.2
20260905222853 72 281 2.6 6.1 0.00 0.01 0.00 64 1024.3
20260905222353 72 311 2.6 7.0 0.00 0.01 0.00 67 1024.4
20260905221854 72 350 1.7 7.0 0.00 0.01 0.00 64 1024.5
20260905221354 72 46 1.7 4.3 0.00 0.01 0.00 65 1024.5
20260905220849 72 319 1.7 4.3 0.00 0.01 0.00 64 1024.5
20260905220349 72 355 1.7 7.0 0.00 0.01 0.00 65 1024.5
20260905215850 72 302 1.7 7.0 0.00 0.01 0.00 64 1024.5
20260905215349 72 55 1.7 6.1 0.00 0.02 0.00 65 1024.5
20260905214849 72 87 1.7 6.1 0.00 0.02 0.00 65 1024.5
20260905214351 72 30 1.7 4.3 0.00 0.03 0.00 65 1024.5
20260905213845 72 45 1.7 4.3 0.00 0.03 0.00 63 1024.5
20260905213346 72 77 1.7 4.3 0.00 0.04 0.00 66 1024.6
20260905212845 71 276 1.7 4.3 0.00 0.04 0.00 66 1024.6
20260905212346 71 200 1.7 5.2 0.00 0.04 0.00 67 1024.7
20260905211846 70 272 3.5 7.0 0.00 0.04 0.00 68 1024.8
20260905211346 70 232 3.5 7.8 0.00 0.04 0.00 68 1024.8
20260905210844 70 242 3.5 7.8 0.00 0.04 0.00 69 1024.8
20260905210344 70 265 2.6 7.0 0.00 0.04 0.00 69 1024.8
20260905205844 70 254 1.7 7.0 0.00 0.04 0.00 69 1024.9
20260905205343 69 157 1.7 6.1 0.00 0.04 0.00 68 1024.8
20260905204844 69 214 1.7 6.1 0.00 0.04 0.00 71 1024.8
20260905204343 69 310 1.7 5.2 0.00 0.04 0.00 67 1024.9
20260905203843 69 156 1.7 4.3 0.00 0.04 0.00 69 1024.9
20260905203341 69 213 1.7 4.3 0.00 0.04 0.00 72 1025.0
20260905202841 69 262 0.9 3.5 0.00 0.04 0.00 70 1025.0
20260905202341 69 326 1.7 4.3 0.00 0.04 0.00 70 1025.0
20260905201839 69 315 1.7 4.3 0.00 0.04 0.00 71 1025.0
20260905201337 69 327 1.7 5.2 0.00 0.04 0.00 70 1025.1
20260905200838 69 0 1.7 5.2 0.00 0.04 0.00 70 1025.2
20260905200333 69 301 1.7 5.2 0.00 0.04 0.00 70 1025.2
20260905195833 69 45 2.6 6.1 0.00 0.04 0.00 71 1025.1
20260905195331 70 25 1.7 6.1 0.00 0.04 0.00 71 1025.1
20260905194831 70 313 0.9 2.6 0.00 0.04 0.00 70 1025.2
20260905194332 69 116 0.9 2.6 0.00 0.05 0.00 75 1025.3
20260905193832 68 192 0.9 4.3 0.00 0.05 0.00 70 1025.4
20260905193329 68 190 1.7 5.2 0.00 0.05 0.00 72 1025.5
20260905192827 68 192 0.9 5.2 0.00 0.05 0.00 73 1025.6
20260905192329 68 126 0.9 3.5 0.00 0.05 0.00 75 1025.7
20260905191827 68 69 0.9 2.6 0.00 0.05 0.00 76 1025.6
20260905191325 67 52 0.9 2.6 0.00 0.05 0.00 77 1025.7
20260905190825 67 48 0.9 2.6 0.00 0.05 0.00 76 1025.8
20260905190320 66 217 0.9 3.5 0.00 0.05 0.00 78 1025.7
20260905185819 66 221 0.9 3.5 0.00 0.05 0.00 77 1025.8
20260905185318 65 180 0.9 4.3 0.00 0.05 0.00 79 1025.9
20260905184819 65 188 0.9 4.3 0.00 0.05 0.00 80 1025.8
20260905184319 65 214 0.9 4.3 0.00 0.05 0.00 80 1025.9
20260905183820 64 146 0.9 3.5 0.00 0.05 0.00 81 1025.9
20260905183314 64 61 1.7 3.5 0.00 0.05 0.00 81 1025.9
20260905182812 63 128 0.9 3.5 0.00 0.05 0.00 84 1025.9
20260905182313 63 203 0.9 3.5 0.00 0.05 0.00 83 1025.9
20260905181814 63 259 0.9 3.5 0.00 0.05 0.00 84 1025.9
20260905181313 63 224 0.0 0.9 0.00 0.05 0.00 85 1025.9
20260905180814 62 225 0.0 1.7 0.00 0.05 0.00 85 1025.9